Location: ????? ???????
(25.7275°N, 32.5929°E)
Time: 10:56:16
(UTC+00:00)

GPS 2-12 Rocket1 - Pass Details

Date: 02 March 2021
Orbit: 586 x 651 km, 20.0° (Epoch: 16 April)

Event Time Altitude Azimuth Distance (km) Brightness Sun altitude
Rises 17:19:18 0° 235° (SW) 2,933 7.4 -20.5°
Reaches altitude 10° 17:21:59 10° 222° (SW) 2,030 6.2 -21.1°
Maximum altitude 17:25:56 26° 167° (SSE) 1,281 4.5 -21.9°
Enters shadow 17:26:04 26° 164° (SSE) 1,282 4.5 -22.0°
